Tracking 19283 objects as of 17-Nov-2018
HD Live streaming from Space Station
objects crossing your sky now

ISIS 2

Track ISIS 2 now!
10-day predictions
ISIS 2 is classified as:


NORAD ID: 5104
Int'l Code: 1971-024A
Perigee: 1,363.2 km
Apogee: 1,432.6 km
Inclination: 88.2 °
Period: 113.6 minutes
Semi major axis: 7768 km
RCS: 1.9568 m2 (large)
Launch date: April 1, 1971
Source: Canada (CA)
Launch site: AIR FORCE WESTERN TEST RANGE (AFWTR)
aabbcc
Your satellite tracking list
Your tracking list is empty




NASA's NSSDC Master Catalog

Two Line Element Set (TLE):
1  5104U 71024A   18320.27701045 +.00000001 +00000-0 -50165-4 0  9997
2  5104 088.1712 038.3274 0044632 151.2396 267.3895 12.67838859203756
Source of the keplerian elements: AFSPC